Weather History for Indianapolis, IN

Change the Weather History Date:

Sunday, August 31, 2014

  Actual Average Record
Temperature  
Mean Temperature 76 °F 72 °F  
Max Temperature 83 °F 83 °F 97 °F (1951)
Min Temperature 69 °F 62 °F 44 °F (1915)
Degree Days  
Heating Degree Days 0 0  
Month to date heating degree days 2 0  
Since 1 June heating degree days 8 20  
Since 1 July heating degree days 6 4  
Cooling Degree Days 11 8  
Month to date cooling degree days 283 288  
Year to date cooling degree days 797 921  
Since 1 June cooling degree days 693 837  
Growing Degree Days 26 (Base 50)    
Moisture  
Dew Point 69 °F    
Average Humidity 78    
Maximum Humidity 93    
Minimum Humidity 63    
Precipitation  
Precipitation 0.01 in 0.10 in 2.43 in (1950)
Month to date precipitation 2.95 3.13  
Year to date precipitation 30.52 29.33  
Snow  
Snow 0.00 in 0.00 in 0.00 in ()
Month to date snowfall 0.0 0.0  
Since 1 June snowfall 0.0 0.0  
Since 1 July snowfall 0.0 0.0  
Snow Depth 0.00 in    
Sea Level Pressure  
Sea Level Pressure 29.97 in    
Wind  
Wind Speed 9 mph (SSW)    
Max Wind Speed 15 mph    
Max Gust Speed 18 mph    
Visibility 8 miles    
Events Rain    
T = Trace of Precipitation, MM = Missing Value Source: NWS Daily Summary

Daily Weather History Graph

Daily Weather History Graph

Search for Another Location

Airport:

Trip Planner

Search our weather history database for the weather conditions in past years. The results will help you decide how hot, cold, wet, or windy it might be!

Date:

Astronomy

Aug. 31, 2014 Rise Set
Actual Time 7:12 AM EDT 8:17 PM EDT
Civil Twilight 6:44 AM EDT 8:45 PM EDT
Nautical Twilight 6:11 AM EDT 9:18 PM EDT
Astronomical Twilight 5:37 AM EDT 9:52 PM EDT
Moon 12:57 PM EDT (8/31) 11:33 PM EDT (8/31)
Length of Visible Light 14h 00m
Length of Day
13h 05m
Waxing Crescent, 32% of the Moon is Illuminated
Aug 31
Waxing Crescent
Sep 2
First Quarter
Sep 8
Full
Sep 15
Last Quarter
Sep 24
New

Hourly Weather History & Observations

Time (EDT) Temp. Heat Index Dew Point Humidity Pressure Visibility Wind Dir Wind Speed Gust Speed Precip Events Conditions
12:54 AM 71.1 °F - 66.9 °F 87% 29.99 in 10.0 mi SSW 10.4 mph - N/A   Mostly Cloudy
1:54 AM 70.0 °F - 66.9 °F 90% 29.98 in 10.0 mi SSW 12.7 mph - N/A   Mostly Cloudy
2:54 AM 70.0 °F - 66.9 °F 90% 29.97 in 10.0 mi SSW 8.1 mph - N/A   Mostly Cloudy
3:54 AM 70.0 °F - 66.9 °F 90% 29.96 in 10.0 mi SSW 6.9 mph - N/A   Mostly Cloudy
4:01 AM 70.0 °F - 66.9 °F 90% 29.98 in 10.0 mi SSW 6.9 mph - N/A   Mostly Cloudy
4:04 AM 69.1 °F - 66.9 °F 93% 29.98 in 10.0 mi SSW 6.9 mph - N/A   Overcast
4:54 AM 70.0 °F - 66.9 °F 90% 29.96 in 9.0 mi SSW 9.2 mph - N/A   Overcast
5:54 AM 71.1 °F - 68.0 °F 90% 29.96 in 9.0 mi SSW 8.1 mph - N/A   Overcast
6:25 AM 71.1 °F - 68.0 °F 90% 29.98 in 8.0 mi SSW 8.1 mph - N/A   Overcast
6:54 AM 71.1 °F - 68.0 °F 90% 29.97 in 8.0 mi SSW 6.9 mph - N/A   Overcast
7:25 AM 71.1 °F - 68.0 °F 90% 29.99 in 8.0 mi South 8.1 mph - N/A   Overcast
7:54 AM 71.1 °F - 68.0 °F 90% 29.98 in 6.0 mi South 8.1 mph - N/A   Overcast
8:35 AM 71.1 °F - 69.1 °F 93% 30.00 in 1.2 mi SSW 6.9 mph - 0.00 in   Light Drizzle
8:49 AM 71.6 °F - 69.8 °F 94% 30.00 in 1.2 mi SW 6.9 mph - 0.00 in   Light Drizzle
8:54 AM 71.1 °F - 70.0 °F 96% 29.98 in 1.2 mi SSW 6.9 mph - 0.00 in   Light Drizzle
9:54 AM 71.1 °F - 70.0 °F 96% 29.99 in 2.5 mi SW 9.2 mph - 0.00 in   Light Drizzle
10:54 AM 72.0 °F - 70.0 °F 93% 30.00 in 5.0 mi SSW 8.1 mph - 0.00 in   Overcast
11:54 AM 73.0 °F - 71.1 °F 93% 29.99 in 6.0 mi South 9.2 mph - 0.01 in Rain Light Rain
12:54 PM 73.9 °F - 71.1 °F 91% 29.99 in 9.0 mi SSW 8.1 mph - 0.00 in   Overcast
1:24 PM 75.9 °F - 71.1 °F 85% 30.00 in 10.0 mi SSW 11.5 mph - N/A   Overcast
1:54 PM 75.9 °F - 70.0 °F 82% 29.99 in 10.0 mi SSW 13.8 mph - 0.00 in Rain Light Rain
2:02 PM 75.9 °F - 72.0 °F 87% 30.00 in 4.0 mi SW 11.5 mph - 0.00 in Rain Rain
2:20 PM 79.0 °F - 72.0 °F 79% 29.99 in 10.0 mi SW 11.5 mph - 0.00 in   Mostly Cloudy
2:54 PM 79.0 °F - 71.1 °F 77% 29.97 in 10.0 mi SW 10.4 mph - 0.00 in   Mostly Cloudy
3:54 PM 81.0 °F 84.4 °F 70.0 °F 69% 29.95 in 10.0 mi SSW 9.2 mph - N/A   Mostly Cloudy
4:39 PM 82.0 °F 85.5 °F 69.1 °F 65% 29.96 in 10.0 mi SSW 10.4 mph - N/A   Mostly Cloudy
4:54 PM 82.0 °F 85.9 °F 70.0 °F 67% 29.94 in 10.0 mi SW 15.0 mph 18.4 mph N/A   Mostly Cloudy
5:47 PM 82.9 °F 86.5 °F 69.1 °F 63% 29.95 in 10.0 mi SSW 11.5 mph - N/A   Scattered Clouds
5:54 PM 82.0 °F 84.9 °F 68.0 °F 62% 29.93 in 10.0 mi WSW 12.7 mph - N/A   Scattered Clouds
6:54 PM 80.1 °F 83.2 °F 70.0 °F 71% 29.93 in 10.0 mi SSE 8.1 mph - N/A   Scattered Clouds
7:54 PM 78.1 °F - 70.0 °F 76% 29.94 in 10.0 mi South 9.2 mph - N/A   Partly Cloudy
8:54 PM 75.9 °F - 69.1 °F 79% 29.94 in 10.0 mi South 8.1 mph - N/A   Partly Cloudy
9:54 PM 75.0 °F - 69.1 °F 82% 29.94 in 10.0 mi South 8.1 mph - N/A   Partly Cloudy
10:54 PM 73.9 °F - 69.1 °F 85% 29.93 in 10.0 mi South 10.4 mph - N/A   Partly Cloudy
11:54 PM 73.0 °F - 69.1 °F 87% 29.93 in 10.0 mi South 9.2 mph - N/A   Partly Cloudy